DW7045 Weather Reports


time (UTC)temp
C
wind
direction
speed
KPH
gust
KPH
rain 1hr
cm
rain 24hr
cm
rain mn
cm
humidity
%
barometer
mb
20260507204530 -17 0.0 0.0 0.00 0.00 0.00 1007.2
20260507204032 -17 0.0 0.0 0.00 0.00 0.00 1007.3
20260507203527 -17 0.0 0.0 0.00 0.00 0.00 1007.5
20260507203024 -17 0.0 0.0 0.00 0.00 0.00 1007.4
20260507202523 -17 0.0 0.0 0.00 0.00 0.00 1007.4
20260507202023 -17 0.0 0.0 0.00 0.00 0.00 1007.4
20260507201533 -17 0.0 0.0 0.00 0.00 0.00 1007.5
20260507201019 -17 0.0 0.0 0.00 0.00 0.00 1007.4
20260507200518 -17 0.0 0.0 0.00 0.00 0.00 1007.5
20260507200021 -17 0.0 0.0 0.00 0.00 0.00 1007.6
20260507195519 -17 0.0 0.0 0.00 0.00 0.00 1007.6
20260507195013 -17 0.0 0.0 0.00 0.00 0.00 1007.7
20260507194512 -17 0.0 0.0 0.00 0.00 0.00 1007.7
20260507194010 -17 0.0 0.0 0.00 0.00 0.00 1007.7
20260507193509 -17 0.0 0.0 0.00 0.00 0.00 1007.9
20260507193007 -17 0.0 0.0 0.00 0.00 0.00 1008.1
20260507192505 -17 0.0 0.0 0.00 0.00 0.00 1008.2
20260507192006 -17 0.0 0.0 0.00 0.00 0.00 1008.2
20260507191504 -17 0.0 0.0 0.00 0.00 0.00 1008.2
20260507191001 -17 0.0 0.0 0.00 0.00 0.00 1008.4
20260507190600 -17 0.0 0.0 0.00 0.00 0.00 1008.3
20260507190059 -17 0.0 0.0 0.00 0.00 0.00 1008.4
20260507185558 -17 0.0 0.0 0.00 0.00 0.00 1008.6
20260507185055 -17 0.0 0.0 0.00 0.00 0.00 1008.6
20260507184554 -17 0.0 0.0 0.00 0.00 0.00 1008.5
20260507184055 -17 0.0 0.0 0.00 0.00 0.00 1008.7
20260507183553 -17 0.0 0.0 0.00 0.00 0.00 1008.8
20260507183055 -17 0.0 0.0 0.00 0.00 0.00 1008.8
20260507182548 18 360 6.4 11.3 0.00 0.00 0.00 45 1008.9
20260507182047 18 360 6.4 11.3 0.00 0.00 0.00 45 1009.0
20260507181547 18 360 3.2 11.3 0.00 0.00 0.00 44 1008.9
20260507181046 18 360 1.6 9.7 0.00 0.00 0.00 46 1009.0
20260507180547 17 360 3.2 12.9 0.00 0.00 0.00 45 1009.1
20260507180051 17 360 4.8 12.9 0.00 0.00 0.00 43 1009.2
20260507175542 17 360 1.6 12.9 0.00 0.00 0.00 44 1009.4
20260507175042 17 360 6.4 11.3 0.00 0.00 0.00 43 1009.5
20260507174541 17 360 1.6 12.9 0.00 0.00 0.00 45 1009.7
20260507174040 17 360 3.2 11.3 0.00 0.00 0.00 46 1009.7
20260507173541 17 360 1.6 11.3 0.00 0.00 0.00 44 1009.7
20260507173053 17 360 3.2 12.9 0.00 0.00 0.00 48 1009.8
20260507172535 17 360 3.2 12.9 0.00 0.00 0.00 46 1010.0
20260507172037 17 360 3.2 14.5 0.00 0.00 0.00 47 1010.1
20260507171536 17 360 6.4 14.5 0.00 0.00 0.00 43 1010.2
20260507171034 17 360 6.4 12.9 0.00 0.00 0.00 46 1010.3
20260507170536 17 360 1.6 6.4 0.00 0.00 0.00 47 1010.3
20260507170046 17 360 1.6 11.3 0.00 0.00 0.00 43 1010.4
20260507165534 17 360 1.6 11.3 0.00 0.00 0.00 43 1010.5
20260507165034 17 360 3.2 8.0 0.00 0.00 0.00 46 1010.6
20260507164530 16 360 0.0 16.1 0.00 0.00 0.00 49 1010.6
20260507164032 16 360 6.4 20.9 0.00 0.00 0.00 45 1010.8
20260507163527 16 360 4.8 12.9 0.00 0.00 0.00 46 1010.7
20260507163027 16 360 4.8 16.1 0.00 0.00 0.00 45 1010.7
20260507162529 16 360 1.6 17.7 0.00 0.00 0.00 45 1010.8
20260507162027 16 360 11.3 17.7 0.00 0.00 0.00 46 1010.9
20260507161526 16 360 6.4 12.9 0.00 0.00 0.00 47 1011.0
20260507161025 16 360 8.0 14.5 0.00 0.00 0.00 44 1011.1
20260507160525 16 360 1.6 12.9 0.00 0.00 0.00 47 1011.2
20260507160025 16 360 6.4 14.5 0.00 0.00 0.00 48 1011.3
20260507155522 15 360 4.8 16.1 0.00 0.00 0.00 47 1011.3
20260507155025 15 360 4.8 16.1 0.00 0.00 0.00 45 1011.4
20260507154522 15 360 8.0 16.1 0.00 0.00 0.00 50 1011.5
20260507154022 15 360 6.4 14.5 0.00 0.00 0.00 50 1011.4
20260507153521 15 360 4.8 17.7 0.00 0.00 0.00 48 1011.4
20260507153021 15 360 6.4 20.9 0.00 0.00 0.00 48 1011.5
20260507152521 15 360 8.0 17.7 0.00 0.00 0.00 50 1011.4
20260507152021 15 360 3.2 14.5 0.00 0.00 0.00 51 1011.4
20260507151520 15 360 6.4 14.5 0.00 0.00 0.00 52 1011.7
20260507151020 15 360 6.4 12.9 0.00 0.00 0.00 52 1011.7
20260507150518 15 360 4.8 14.5 0.00 0.00 0.00 50 1011.8
20260507150015 14 360 4.8 14.5 0.00 0.00 0.00 52 1011.9
20260507145515 14 360 1.6 12.9 0.00 0.00 0.00 51 1012.1
20260507145016 14 360 6.4 12.9 0.00 0.00 0.00 52 1012.3
20260507144514 14 360 6.4 11.3 0.00 0.00 0.00 52 1012.4
20260507144014 14 360 3.2 11.3 0.00 0.00 0.00 55 1012.4
20260507143514 14 360 4.8 16.1 0.00 0.00 0.00 53 1012.4
20260507143013 14 360 4.8 16.1 0.00 0.00 0.00 54 1012.4
20260507142513 14 360 3.2 9.7 0.00 0.00 0.00 55 1012.5
20260507142009 13 360 1.6 11.3 0.00 0.00 0.00 57 1012.5
20260507141509 13 360 4.8 14.5 0.00 0.00 0.00 55 1012.7
20260507141010 13 360 6.4 14.5 0.00 0.00 0.00 53 1012.7
20260507140508 13 360 6.4 9.7 0.00 0.00 0.00 54 1012.9
20260507140008 13 360 4.8 8.0 0.00 0.00 0.00 57 1012.8
20260507135506 13 360 1.6 9.7 0.00 0.00 0.00 54 1012.8
20260507135006 13 360 1.6 9.7 0.00 0.00 0.00 56 1012.9
20260507134508 13 360 3.2 8.0 0.00 0.00 0.00 54 1013.1
20260507134005 13 360 3.2 8.0 0.00 0.00 0.00 56 1013.1
20260507133504 13 360 1.6 14.5 0.00 0.00 0.00 57 1013.1
20260507133003 13 360 6.4 14.5 0.00 0.00 0.00 56 1013.1
20260507132504 12 360 4.8 9.7 0.00 0.00 0.00 57 1013.2
20260507132002 12 360 4.8 8.0 0.00 0.00 0.00 58 1013.2
20260507131501 12 360 0.0 11.3 0.00 0.00 0.00 59 1013.2
20260507131101 12 360 0.0 11.3 0.00 0.00 0.00 60 1013.2
20260507130559 12 360 3.2 9.7 0.00 0.00 0.00 60 1013.2
20260507130106 12 360 1.6 14.5 0.00 0.00 0.00 60 1013.2
20260507125557 12 360 6.4 14.5 0.00 0.00 0.00 58 1013.2
20260507125055 12 360 6.4 11.3 0.00 0.00 0.00 59 1013.2
20260507124558 12 360 1.6 12.9 0.00 0.00 0.00 59 1013.2
20260507124053 12 360 3.2 14.5 0.00 0.00 0.00 60 1013.2
20260507123553 12 360 3.2 12.9 0.00 0.00 0.00 60 1013.1
20260507123051 12 360 1.6 9.7 0.00 0.00 0.00 61 1013.2
20260507122550 12 360 4.8 9.7 0.00 0.00 0.00 62 1013.0
20260507122049 12 360 1.6 8.0 0.00 0.00 0.00 65 1013.1
20260507121553 11 360 1.6 6.4 0.00 0.00 0.00 65 1013.0
20260507121046 11 360 1.6 6.4 0.00 0.00 0.00 66 1013.1
20260507120545 11 360 0.0 6.4 0.00 0.00 0.00 66 1012.9
20260507120044 11 360 1.6 6.4 0.00 0.00 0.00 65 1012.8
20260507115543 11 360 0.0 4.8 0.00 0.00 0.00 67 1012.9
20260507115042 11 360 0.0 6.4 0.00 0.00 0.00 68 1012.9
20260507114541 11 360 1.6 4.8 0.00 0.00 0.00 67 1012.8
20260507114041 11 360 0.0 4.8 0.00 0.00 0.00 68 1012.8
20260507113544 11 360 0.0 4.8 0.00 0.00 0.00 69 1012.7
20260507113044 11 360 0.0 4.8 0.00 0.00 0.00 67 1012.6
20260507112542 11 360 0.0 4.8 0.00 0.00 0.00 67 1012.6
20260507112042 11 360 0.0 4.8 0.00 0.00 0.00 66 1012.7
20260507111537 11 360 0.0 4.8 0.00 0.00 0.00 67 1012.7
20260507111035 -17 0.0 0.0 0.00 0.00 0.00 1012.7
20260507110534 -17 0.0 0.0 0.00 0.00 0.00 1012.6
20260507110033 -17 0.0 0.0 0.00 0.00 0.00 1012.6
20260507105531 -17 0.0 0.0 0.00 0.00 0.00 1012.6
20260507105029 -17 0.0 0.0 0.00 0.00 0.00 1012.5
20260507104528 -17 0.0 0.0 0.00 0.00 0.00 1012.5
20260507104027 -17 0.0 0.0 0.00 0.00 0.00 1012.3
20260507103530 -17 0.0 0.0 0.00 0.00 0.00 1012.2
20260507103024 -17 0.0 0.0 0.00 0.00 0.00 1012.2
20260507102524 -17 0.0 0.0 0.00 0.00 0.00 1012.0
20260507102021 -17 0.0 0.0 0.00 0.00 0.00 1012.0
20260507101519 -17 0.0 0.0 0.00 0.00 0.00 1012.1
20260507101020 -17 0.0 0.0 0.00 0.00 0.00 1012.1
20260507100518 -17 0.0 0.0 0.00 0.00 0.00 1012.0
20260507100016 -17 0.0 0.0 0.00 0.00 0.00 1011.9
20260507095513 -17 0.0 0.0 0.00 0.00 0.00 1011.9
20260507095012 -17 0.0 0.0 0.00 0.00 0.00 1011.8
20260507094510 -17 0.0 0.0 0.00 0.00 0.00 1011.7
20260507094009 -17 0.0 0.0 0.00 0.00 0.00 1011.5
20260507093511 -17 0.0 0.0 0.00 0.00 0.00 1011.5
20260507093013 -17 0.0 0.0 0.00 0.00 0.00 1011.4
20260507092505 -17 0.0 0.0 0.00 0.00 0.00 1011.5
20260507092002 -17 0.0 0.0 0.00 0.00 0.00 1011.6
20260507091501 -17 0.0 0.0 0.00 0.00 0.00 1011.6
20260507091100 -17 0.0 0.0 0.00 0.00 0.00 1011.7
20260507090559 -17 0.0 0.0 0.00 0.00 0.00 1011.7
20260507090101 -17 0.0 0.0 0.00 0.00 0.00 1011.7
20260507085556 -17 0.0 0.0 0.00 0.00 0.00 1011.8
20260507085056 -17 0.0 0.0 0.00 0.00 0.00 1011.7
20260507084604 -17 0.0 0.0 0.00 0.00 0.00 1011.6
20260507084051 -17 0.0 0.0 0.00 0.00 0.00 1011.6
20260507083550 -17 0.0 0.0 0.00 0.00 0.00 1011.5
20260507083050 -17 0.0 0.0 0.00 0.00 0.00 1011.5
20260507082546 -17 0.0 0.0 0.00 0.00 0.00 1011.5
20260507082045 -17 0.0 0.0 0.00 0.00 0.00 1011.5
20260507081544 -17 0.0 0.0 0.00 0.00 0.00 1011.4
20260507081043 -17 0.0 0.0 0.00 0.00 0.00 1011.3
20260507080545 -17 0.0 0.0 0.00 0.00 0.00 1011.2
20260507080046 -17 0.0 0.0 0.00 0.00 0.00 1011.1
20260507075540 -17 0.0 0.0 0.00 0.00 0.00 1011.1
20260507075037 -17 0.0 0.0 0.00 0.00 0.00 1011.0
20260507074536 -17 0.0 0.0 0.00 0.00 0.00 1010.8
20260507074034 -17 0.0 0.0 0.00 0.00 0.00 1010.9
20260507073536 -17 0.0 0.0 0.00 0.00 0.00 1010.9
20260507073038 -17 0.0 0.0 0.00 0.00 0.00 1010.9
20260507072530 -17 0.0 0.0 0.00 0.00 0.00 1010.9
20260507072028 -17 0.0 0.0 0.00 0.00 0.00 1010.9
20260507071527 -17 0.0 0.0 0.00 0.00 0.00 1010.7
20260507071025 -17 0.0 0.0 0.00 0.00 0.00 1010.8
20260507070525 -17 0.0 0.0 0.00 0.00 0.00 1010.8
20260507070023 -17 0.0 0.0 0.00 0.00 0.00 1010.9
20260507065523 -17 0.0 0.0 0.00 0.00 0.00 1010.8
20260507065019 -17 0.0 0.0 0.00 0.00 0.00 1010.9
20260507064518 -17 0.0 0.0 0.00 0.00 0.00 1011.1
20260507064017 -17 0.0 0.0 0.00 0.00 0.00 1011.2
20260507063515 -17 0.0 0.0 0.00 0.00 0.00 1011.4
20260507063014 -17 0.0 0.0 0.00 0.00 0.00 1011.2
20260507062512 -17 0.0 0.0 0.00 0.00 0.00 1011.2
20260507062011 -17 0.0 0.0 0.00 0.00 0.00 1011.2
20260507061510 -17 0.0 0.0 0.00 0.00 0.00 1011.3
20260507061007 -17 0.0 0.0 0.00 0.00 0.00 1011.5
20260507060506 -17 0.0 0.0 0.00 0.00 0.00 1011.4
20260507060010 -17 0.0 0.0 0.00 0.00 0.00 1011.5
20260507055504 -17 0.0 0.0 0.00 0.00 0.00 1011.4
20260507055002 -17 0.0 0.0 0.00 0.00 0.00 1011.4
20260507054501 -17 0.0 0.0 0.00 0.00 0.00 1011.3
20260507054100 -17 0.0 0.0 0.00 0.00 0.00 1011.3
20260507053600 -17 0.0 0.0 0.00 0.00 0.00 1011.3
20260507053107 -17 0.0 0.0 0.00 0.00 0.00 1011.2
20260507052555 -17 0.0 0.0 0.00 0.00 0.00 1011.0
20260507052056 -17 0.0 0.0 0.00 0.00 0.00 1010.9
20260507051557 -17 0.0 0.0 0.00 0.00 0.00 1010.8
20260507051049 -17 0.0 0.0 0.00 0.00 0.00 1011.0
20260507050549 -17 0.0 0.0 0.00 0.00 0.00 1011.2
20260507050051 -17 0.0 0.0 0.00 0.00 0.00 1011.1
20260507045546 -17 0.0 0.0 0.00 0.00 0.00 1011.2
20260507045044 -17 0.0 0.0 0.00 0.00 0.00 1011.0
20260507044551 -17 0.0 0.0 0.00 0.00 0.00 1011.1
20260507044042 -17 0.0 0.0 0.00 0.00 0.00 1011.1
20260507043544 -17 0.0 0.0 0.00 0.00 0.00 1011.1
20260507043039 -17 0.0 0.0 0.00 0.00 0.00 1010.6
20260507042536 -17 0.0 0.0 0.00 0.00 0.00 1010.5
20260507042036 -17 0.0 0.0 0.00 0.00 0.00 1010.7
20260507041534 -17 0.0 0.0 0.00 0.00 0.00 1010.9
20260507041033 -17 0.0 0.0 0.00 0.00 0.00 1010.9
20260507040531 -17 0.0 0.0 0.00 0.00 0.00 1011.0
20260507040031 -17 0.0 0.0 0.00 0.00 0.00 1011.0
20260507035528 -17 0.0 0.0 0.00 0.00 0.00 1010.7
20260507035027 -17 0.0 0.0 0.00 0.00 0.00 1010.7
20260507034526 -17 0.0 0.0 0.00 0.00 0.00 1010.6
20260507034024 -17 0.0 0.0 0.00 0.00 0.00 1010.8
20260507033524 -17 0.0 0.0 0.00 0.00 0.00 1010.9
20260507033021 -17 0.0 0.0 0.00 0.00 0.00 1010.8
20260507032519 -17 0.0 0.0 0.00 0.00 0.00 1010.9
20260507032018 -17 0.0 0.0 0.00 0.00 0.00 1011.2
20260507031516 -17 0.0 0.0 0.00 0.00 0.00 1010.9
20260507031020 -17 0.0 0.0 0.00 0.00 0.00 1010.8
20260507030514 -17 0.0 0.0 0.00 0.00 0.00 1011.0
20260507030016 -17 0.0 0.0 0.00 0.00 0.00 1010.9
20260507025510 -17 0.0 0.0 0.00 0.00 0.00 1010.8
20260507025009 -17 0.0 0.0 0.00 0.00 0.00 1010.8
20260507024508 -17 0.0 0.0 0.00 0.00 0.00 1010.6
20260507024008 -17 0.0 0.0 0.00 0.00 0.00 1010.5
20260507023505 -17 0.0 0.0 0.00 0.00 0.00 1010.5
20260507023004 -17 0.0 0.0 0.00 0.00 0.00 1010.4
20260507022502 -17 0.0 0.0 0.00 0.00 0.00 1010.6
20260507022101 -17 0.0 0.0 0.00 0.00 0.00 1010.3
20260507021636 -17 0.0 0.0 0.00 0.00 0.00 1010.1
20260507021058 -17 0.0 0.0 0.00 0.00 0.00 1010.1
20260507020556 -17 0.0 0.0 0.00 0.00 0.00 1010.3
20260507020110 -17 0.0 0.0 0.00 0.00 0.00 1010.3
20260507015559 -17 0.0 0.0 0.00 0.00 0.00 1010.0
20260507015051 -17 0.0 0.0 0.00 0.00 0.00 1010.0
20260507014617 -17 0.0 0.0 0.00 0.00 0.00 1009.9
20260507014049 -17 0.0 0.0 0.00 0.00 0.00 1010.2
20260507013548 -17 0.0 0.0 0.00 0.00 0.00 1010.3
20260507013049 -17 0.0 0.0 0.00 0.00 0.00 1010.0
20260507012543 -17 0.0 0.0 0.00 0.00 0.00 1009.8
20260507012043 -17 0.0 0.0 0.00 0.00 0.00 1009.8
20260507011549 -17 0.0 0.0 0.00 0.00 0.00 1009.9
20260507011039 -17 0.0 0.0 0.00 0.00 0.00 1009.7
20260507010539 -17 0.0 0.0 0.00 0.00 0.00 1009.5
20260507010043 -17 0.0 0.0 0.00 0.00 0.00 1009.7
20260507005535 -17 0.0 0.0 0.00 0.00 0.00 1009.7
20260507005033 -17 0.0 0.0 0.00 0.00 0.00 1009.9
20260507004532 -17 0.0 0.0 0.00 0.00 0.00 1010.1
20260507004031 -17 0.0 0.0 0.00 0.00 0.00 1009.8
20260507003530 -17 0.0 0.0 0.00 0.00 0.00 1009.9
20260507003028 -17 0.0 0.0 0.00 0.00 0.00 1009.9
20260507002526 -17 0.0 0.0 0.00 0.00 0.00 1009.8
20260507002025 -17 0.0 0.0 0.00 0.00 0.00 1009.6
20260507001526 -17 0.0 0.0 0.00 0.00 0.00 1009.5
20260507001023 -17 0.0 0.0 0.00 0.00 0.00 1009.4
20260507000522 -17 0.0 0.0 0.00 0.00 0.00 1009.6
20260507000025 -17 0.0 0.0 0.00 0.00 0.00 1009.3
20260506235518 -17 0.0 0.0 0.00 0.00 0.00 1009.0
20260506235016 -17 0.0 0.0 0.00 0.00 0.00 1008.9
20260506234515 -17 0.0 0.0 0.00 0.00 0.00 1009.0
20260506234014 -17 0.0 0.0 0.00 0.00 0.00 1008.8
20260506233512 -17 0.0 0.0 0.00 0.00 0.00 1008.7
20260506233011 -17 0.0 0.0 0.00 0.00 0.00 1008.4
20260506232508 -17 0.0 0.0 0.00 0.00 0.00 1008.5
20260506232007 -17 0.0 0.0 0.00 0.00 0.00 1008.3
20260506231506 -17 0.0 0.0 0.00 0.00 0.00 1008.2
20260506231004 -17 0.0 0.0 0.00 0.00 0.00 1008.1
20260506230504 -17 0.0 0.0 0.00 0.00 0.00 1008.1
20260506230001 -17 0.0 0.0 0.00 0.00 0.00 1008.1
20260506225600 -17 0.0 0.0 0.00 0.00 0.00 1008.3
20260506225059 -17 0.0 0.0 0.00 0.00 0.00 1008.0
20260506224558 -17 0.0 0.0 0.00 0.00 0.00 1008.1
20260506224055 -17 0.0 0.0 0.00 0.00 0.00 1008.2
20260506223555 -17 0.0 0.0 0.00 0.00 0.00 1008.2
20260506223053 -17 0.0 0.0 0.00 0.00 0.00 1008.1
20260506222554 -17 0.0 0.0 0.00 0.00 0.00 1007.9
20260506222049 -17 0.0 0.0 0.00 0.00 0.00 1007.8
20260506221556 -17 0.0 0.0 0.00 0.00 0.00 1007.7
20260506221046 -17 0.0 0.0 0.00 0.00 0.00 1007.7
20260506220545 -17 0.0 0.0 0.00 0.00 0.00 1007.7
20260506220047 -17 0.0 0.0 0.00 0.00 0.00 1007.4
20260506215542 -17 0.0 0.0 0.00 0.00 0.00 1007.4
20260506215041 -17 0.0 0.0 0.00 0.00 0.00 1007.3
20260506214540 -17 0.0 0.0 0.00 0.00 0.00 1007.3
20260506214038 -17 0.0 0.0 0.00 0.00 0.00 1007.2
20260506213539 -17 0.0 0.0 0.00 0.00 0.00 1007.4
20260506213042 -17 0.0 0.0 0.00 0.00 0.00 1007.4
20260506212533 -17 0.0 0.0 0.00 0.00 0.00 1007.4
20260506212034 -17 0.0 0.0 0.00 0.00 0.00 1007.3
20260506211540 -17 0.0 0.0 0.00 0.00 0.00 1007.1
20260506211029 -17 0.0 0.0 0.00 0.00 0.00 1007.1
20260506210528 -17 0.0 0.0 0.00 0.00 0.00 1007.0
20260506210034 -17 0.0 0.0 0.00 0.00 0.00 1006.7
20260506205524 -17 0.0 0.0 0.00 0.00 0.00 1006.7
20260506205023 -17 0.0 0.0 0.00 0.00 0.00 1006.6